Regional Weather Roundup
Issued by NWS

Home | Current Version | Previous Version | Text Only | Print | Product List | Glossary On
Versions: 1 2 3 4 5 6 7 8 9 10 11 12 13 14 15 16 17 18 19 20 21 22 23 24 25 26 27 28 29 30 31 32 33 34 35 36 37 38 39 40 41 42 43 44 45 46 47 48 49 50
000
ASUS44 KOUN 260900
RWROK

WEATHER ROUNDUP FOR OKLAHOMA
NATIONAL WEATHER SERVICE NORMAN OK
400 AM CDT THU MAY 26 2016

NOTE: "FAIR" INDICATES FEW OR NO CLOUDS BELOW 12,000 FEET WITH NO
      SIGNIFICANT WEATHER AND/OR OBSTRUCTIONS TO VISIBILITY.

OKZ001>007-009>012-014-015-017-261000-
NORTHWEST OKLAHOMA AND THE PANHANDLE

CITY           SKY/WX    TMP DP  RH WIND       PRES   REMARKS
GAGE           CLEAR     74  70  87 S20G28    29.79F
GUYMON         CLEAR     55  38  52 W3        29.80F
$$

OKZ016-021>023-033>039-044-045-261000-
SOUTHWEST OKLAHOMA

CITY           SKY/WX    TMP DP  RH WIND       PRES   REMARKS
LAWTON/REGL    CLOUDY    76  73  91 SE7       29.87R FOG
LAWTON/FT SILL MOCLDY    76  76 100 S12       29.86R
FREDERICK      PTCLDY    75  74  96 S12       29.81F FOG
CLINTON        CLEAR     74  71  91 S17       29.86S FOG
HOBART         MOCLDY    75  73  93 S13       29.86R FOG
ALTUS AFB      PTCLDY    73  72  94 SE3       29.84S FOG
$$

OKZ018>020-024>031-261000-
CENTRAL OKLAHOMA

CITY           SKY/WX    TMP DP  RH WIND       PRES   REMARKS
OKLAHOMA CITY  CLOUDY    77  73  87 S15       29.87R
OKC/WILEY POST CLOUDY    78  72  81 S21       29.86S
OKC/TINKER AFB MOCLDY    77  73  85 S18       29.87S
STILLWATER     CLOUDY    77  73  87 S12       29.85F
GUTHRIE        CLOUDY    79  72  79 S13G21    29.85S
$$

OKZ008-013-054>072-261000-
NORTHEAST OKLAHOMA

CITY           SKY/WX    TMP DP  RH WIND       PRES   REMARKS
TULSA          MOCLDY    78  74  87 S15       29.85F
TULSA/JONES    CLOUDY    79  73  82 S8        29.87S
PONCA CITY     CLOUDY    77  73  87 S13G23    29.82F
BARTLESVILLE   CLOUDY    77  73  87 S10       29.86S
MUSKOGEE       CLOUDY    77  72  84 S9        29.90F
$$

OKZ032-040>043-046>053-073>077-261000-
SOUTH CENTRAL/SOUTHEAST OKLAHOMA

CITY           SKY/WX    TMP DP  RH WIND       PRES   REMARKS
MCALESTER      MOCLDY    78  73  84 S9        29.91F
$$





USA.gov is the U.S. government's official web portal to all federal, state and local government web resources and services.